Regional Weather Roundup
Issued by NWS

Home | Current Version | Previous Version | Text Only | Print | Product List | Glossary Off
Versions: 1 2 3 4 5 6 7 8 9 10 11 12 13 14 15 16 17 18 19 20 21 22 23 24 25 26 27 28 29 30 31 32 33 34 35 36 37 38 39 40 41 42 43 44 45 46 47 48 49 50

000
ASUS43 KLOT 301610
RWRIL

ILLINOIS REGIONAL WEATHER ROUNDUP
NATIONAL WEATHER SERVICE CHICAGO/ROMEOVILLE IL
1000 AM CST FRI JAN 30 2015

NOTE: "FAIR" INDICATES FEW OR NO CLOUDS BELOW 12,000 FEET WITH NO
SIGNIFICANT WEATHER AND/OR OBSTRUCTIONS TO VISIBILITY.

* THESE STATIONS ARE NOT UNDER NWS QUALITY CONTROL. THEY ALSO MAY NOT
  REPORT WEATHER SUCH AS PRECIPITATION OR FOG.

ILZ001-002-007-009-015-016-024-301700-
NORTHWEST ILLINOIS

CITY           SKY/WX    TMP DP  RH WIND       PRES   REMARKS
MOLINE         SUNNY     24  11  57 NE5       30.57R WCI  18
STERLING*      MOSUNNY   25  10  54 NE8       30.55S WCI  16
SAVANNA*       MOSUNNY   23  10  58 CALM      30.55F
$$

ILZ003-004-008-010-011-017-018-301700-
NORTH CENTRAL ILLINOIS

CITY           SKY/WX    TMP DP  RH WIND       PRES   REMARKS
ROCKFORD       PTSUNNY   23   8  52 N7        30.56R WCI  15
FREEPORT*      PTSUNNY   20   9  61 N5        30.55R WCI  14
ROCHELLE*      MOSUNNY   21  11  65 N5        30.54R WCI  15
DE KALB*       MOSUNNY   21  10  62 N6        30.53R WCI  13
PERU*          SUNNY     25  14  61 N6        30.56R WCI  18
$$

ILZ005-006-012>014-019>023-301700-
NORTHEAST ILLINOIS

CITY           SKY/WX    TMP DP  RH WIND       PRES   REMARKS
CHICAGO-OHARE  PTSUNNY   23   7  50 N8        30.52R WCI  14
CHICAGO-MIDWAY PTSUNNY   27   9  46 NW9       30.52R WCI  18
AURORA         MOSUNNY   25   9  50 NE9       30.53R WCI  15
LANSING*       SUNNY     27   9  47 N7        30.51S WCI  19
JOLIET*        SUNNY     25   9  51 N6        30.54R WCI  18
WAUKEGAN       SUNNY     23   8  52 NW7       30.51R WCI  15
DUPAGE AIRPORT MIX PCPN  24   9  52 N9        30.51R WCI  14
KANKAKEE*      SUNNY     27  14  57 NW8       30.53R WCI  19
WHEELING       SUNNY     24   7  48 NW8       30.53R WCI  15
MORRIS*        SUNNY     26  17  70 NE3       30.54R
ROMEOVILLE*    SUNNY     25   8  49 N9        30.53R WCI  15
NORTHERLY ISL    N/A     25  12  58 MISG        N/A
$$

LMZ740>746-301700-
SOUTHERN LAKE MICHIGAN

STATION/POSITION SKY/WX   TEMP    WIND        PRES    VSBY  WAVE
                          AIR SEA DIR/SP/G                  HT/PER
                          (F)     (DEG/KT/KT) (MB)    (MI)  (FT/S)
WAUKEGAN HARBOR            22     340/  7/ 11   N/A
HARRISON CRIB              23     330/ 13/ 16   N/A
BURNHAM HARBOR             26     360/ 11       N/A
CALUMET HARBOR             26     310/  5/ 10   N/A
MICHIGAN CITY              25     330/ 15/ 17   N/A
$$

ILZ025>027-034>036-040-047-049-050-058-095>099-301700-
WEST-CENTRAL ILLINOIS

CITY           SKY/WX    TMP DP  RH WIND       PRES   REMARKS
QUINCY         SUNNY     27  16  63 NE7       30.56R WCI  19
GALESBURG*     SUNNY     24  15  68 N7        30.56R WCI  16
MACOMB*        SUNNY     26  18  70 NE8       30.58S WCI  18
JACKSONVILLE*  SUNNY     30  18  62 CALM      30.57R
PITTSFIELD*    SUNNY     29  19  65 N6        30.57R WCI  23
$$

ILZ028>032-037-038-041>044-048-051>054-059>061-301700-
CENTRAL ILLINOIS

CITY           SKY/WX    TMP DP  RH WIND       PRES   REMARKS
PONTIAC        SUNNY     27  19  72 N6        30.55R WCI  20
BLOOMINGTON    MOSUNNY   28  19  69 NE8       30.54R WCI  20
DECATUR        SUNNY     31  19  61 NE7       30.54R WCI  24
PEORIA         SUNNY     29  16  58 NE7       30.56R WCI  22
LACON*         SUNNY     25  13  58 N3        30.55R
LINCOLN*       SUNNY     31  21  66 N5        30.57R WCI  26
SPRINGFIELD    SUNNY     30  18  60 N8        30.56R WCI  22
TAYLORVILLE    SUNNY     28  21  74 N10G16    30.55S WCI  19
$$

ILZ033-039-045-046-055>057-062-063-301700-
EAST-CENTRAL ILLINOIS

CITY           SKY/WX    TMP DP  RH WIND       PRES   REMARKS
CHAMPAIGN      SUNNY     30  16  56 N9        30.53R WCI  22
DANVILLE*      SUNNY     28  15  57 N12G17    30.49S WCI  18
RANTOUL*       SUNNY     30  14  52 N10       30.53R WCI  21
MATTOON        MOSUNNY   30  19  63 N12       30.53R WCI  20
PARIS*         MOSUNNY   31  20  63 NE7       30.54R WCI  24
$$

ILZ079-100>102-301700-
SOUTHWEST ILLINOIS

CITY           SKY/WX    TMP DP  RH WIND       PRES   REMARKS
ALTON          SUNNY     30  18  59 N6        30.56S WCI  24
BELLEVILLE     SUNNY     33  21  61 NE8       30.55F WCI  26
CAHOKIA*       SUNNY     32  19  58 NE9       30.56F WCI  24
SPARTA*        PTSUNNY   30  21  69 N8        30.57R WCI  23
$$

ILZ064>066-069>071-074>076-080>082-084>086-088>090-092>094-301700-
SOUTH-CENTRAL ILLINOIS

CITY           SKY/WX    TMP DP  RH WIND       PRES   REMARKS
CARBONDALE     MOSUNNY   34  20  56 N10       30.56R WCI  26
CAIRO*         MOSUNNY   38  24  57 N12       30.55R WCI  31
EFFINGHAM*     MOSUNNY   32  18  56 NW10      30.56R WCI  23
MARION         PTSUNNY   34  21  60 N9        30.56R WCI  26
MT. VERNON     MOSUNNY   34  19  55 N6        30.56R WCI  29
CENTRALIA*     SUNNY     32  21  63 N10       30.55R WCI  24
SALEM*         SUNNY     33  23  65 N9        30.55R WCI  25
METROPOLIS*    SUNNY     37  24  58 N10G16    30.54R WCI  30
$$

ILZ067-068-072-073-078-083-087-091-301700-
SOUTHEAST ILLINOIS

CITY           SKY/WX    TMP DP  RH WIND       PRES   REMARKS
LAWRENCEVILLE  MOSUNNY   33  22  63 N9        30.54R WCI  25
FLORA*         SUNNY     32  22  66 N10       30.56R WCI  24
FAIRFIELD*     SUNNY     33  21  62 NW8       30.54R WCI  26
HARRISBURG*    SUNNY     34  22  60 N12       30.56S WCI  26
ROBINSON*      PTSUNNY   32  24  71 N9        30.54R WCI  25
CARMI*         SUNNY     36  25  64 N12       30.54R WCI  28
$$

ABBREVIATIONS USED IN REMARKS
   TC - TEMPERATURE IN CELSIUS
  WCI - WIND CHILL INDEX
   HX - HEAT INDEX
  VSB - VISIBILITY
$$



USA.gov is the U.S. government's official web portal to all federal, state and local government web resources and services.